This demonstration page uses our WeatherBlox Daily Observations layout. Learn more.

Left ArrowRight Arrow

30.21309, -93.2044

Hourly Observations for May 5, 2015

Temp ( °F °C ) Dew Point ( °F °C ) Humidity (%) Winds ( mph kmh ) Pressure ( in mb ) Visibility ( mi km ) Precip ( " mm )
12:15 am 00:15 Cloudy 71 21.6 68 20.2 92 92 E 7 11 30.09 1019 10 16 0.00 0.00
12:35 am 00:35 Cloudy 70 21.3 69 20.5 95 95 E 8 13 30.09 1019 10 16 0.01 0.25
12:55 am 00:55 Cloudy 70 21.3 69 20.5 95 95 E 8 13 30.09 1019 10 16 0.01 0.25
1:15 am 01:15 Mostly Cloudy 70 21.2 69 20.5 96 96 E 7 11 30.09 1019 10 16 0.00 0.00
1:35 am 01:35 Mostly Cloudy 70 21.3 69 20.5 95 95 ESE 8 13 30.09 1019 10 16 0.00 0.00
1:55 am 01:55 Mostly Cloudy 71 21.5 69 20.5 94 94 ESE 9 15 30.09 1019 10 16 0.00 0.00
2:15 am 02:15 Cloudy 71 21.5 69 20.5 94 94 ESE 9 15 30.06 1018 10 16 0.00 0.00
2:35 am 02:35 Cloudy 71 21.6 69 20.5 93 93 ESE 10 17 30.06 1018 10 16 0.00 0.00
2:55 am 02:55 Cloudy 71 21.6 69 20.5 93 93 ESE 7 11 30.06 1018 10 16 0.00 0.00
3:15 am 03:15 Mostly Cloudy 71 21.5 69 20.3 93 93 E 6 9 30.06 1018 10 16 0.00 0.00
3:35 am 03:35 Partly Cloudy 70 21.2 68 20.2 94 94 E 7 11 30.06 1018 10 16 0.00 0.00
3:55 am 03:55 Mostly Cloudy 70 21.1 68 20.1 94 94 E 6 9 30.06 1018 10 16 0.00 0.00
4:15 am 04:15 Cloudy 70 21 68 20.1 95 95 E 6 9 30.06 1018 10 16 0.00 0.00
4:35 am 04:35 Mostly Cloudy 70 21 68 20.2 95 95 E 7 11 30.06 1018 10 16 0.00 0.00
4:55 am 04:55 Cloudy 70 20.9 68 20.1 95 95 E 7 11 30.06 1018 10 16 0.00 0.00
5:15 am 05:15 Mostly Cloudy 70 20.9 68 20 95 95 E 6 9 30.06 1018 10 16 0.00 0.00
6:00 am 06:00 Partly Cloudy 70 21 66 19 88 88 E 12 19 30.09 1019 10 16 0.00 0.00
6:45 am 06:45 Partly Cloudy 68 20 66 19 94 94 E 7 11 30.09 1019 10 16 0.00 0.00
7:50 am 07:50 Partly Cloudy 70 21 66 19 88 88 E 7 11 30.12 1020 10 16 0.00 0.00
8:55 am 08:55 Mostly Sunny 73 23 66 19 78 78 E 12 19 30.12 1020 10 16 0.00 0.00
10:45 am 10:45 Mostly Sunny 77 25 66 19 69 69 ESE 14 22 30.12 1020 10 16 0.00 0.00
12:45 pm 12:45 Mostly Cloudy 82 28 64 18 55 55 ESE 18 30 30.12 1020 10 16 0.00 0.00
1:45 pm 13:45 Mostly Cloudy 82 28 64 18 55 55 SE 20 31 30.09 1019 10 16 0.00 0.00
9:50 pm 21:50 Mostly Clear 70 21 66 19 88 88 ESE 7 11 30.06 1018 10 16 0.00 0.00
10:15 pm 22:15 Clear 69 20.7 65 18.5 87 87 ESE 6 9 30.09 1019 10 16 0.00 0.00
10:35 pm 22:35 Clear 69 20.3 65 18.3 88 88 ESE 6 9 30.09 1019 10 16 0.00 0.00
10:55 pm 22:55 Clear 69 20.4 65 18.4 88 88 SE 7 11 30.09 1019 10 16 0.00 0.00
11:15 pm 23:15 Clear 69 20.4 65 18.5 89 89 SE 7 11 30.09 1019 10 16 0.00 0.00
11:35 pm 23:35 Clear 69 20.6 65 18.2 86 86 ESE 7 11 30.09 1019 10 16 0.00 0.00
11:55 pm 23:55 Clear 69 20.5 64 18 86 86 ESE 6 9 30.09 1019 10 16 0.00 0.00

Powered by AerisWeather